[[{"header":{"parameterUnit":"m.s-1","parameterCategory":1,"la1":30.2991,"la2":30.254,"lo1":-89.0895,"lo2":-89.0444,"dy":0.0017,"dx":0.0017,"nx":28,"ny":28,"refTime":"2023-08-22T03:00:00:Z","depth":0,"parameterNumber":2,"parameterNumberName":"U-component_of_WINDS"},"data":[0,0,0,0,0,0,0,0,0,0,0,0,0,0,0,0,0,0,0,0,0,0,0,0,0,0,0,0,0,0,0,0,0,0,0,0,0,0,0,0,0,0,0,0,0,0,0,0,0,0,0,0,0,0,0,0,0,0,-3.0377,-3.0376,0,-3.0268,-3.0267,-3.0265,-3.0141,-3.0139,-3.0137,-3.0135,-3.0023,-3.0021,-3.002,0,0,0,0,0,0,0,0,0,0,0,0,0,-3.0479,-3.0478,-3.0378,-3.0376,-3.0375,-3.0268,-3.0267,-3.0265,-3.0141,-3.0139,-3.0136,-3.0134,-3.0023,-3.0022,-3.002,0,0,0,0,0,0,0,0,0,0,0,0,0,-3.0409,-3.0478,-3.0378,-3.03,-3.0292,-3.0269,-3.0267,-3.0265,-3.0141,-3.0139,-3.0136,-3.0133,-3.0024,-3.0022,-3.002,-3.0064,0,0,-3.0014,-3.0013,0,0,0,0,0,0,0,0,-3.0413,-3.0405,-3.0313,-3.0305,-3.0296,-3.0215,-3.0261,-3.0197,-3.0142,-3.0199,-3.0135,-3.0132,-3.0089,-3.0081,-3.0067,-3.0059,-3.0054,-3.0014,-3.0013,-3.0012,-3.0011,0,0,0,0,0,0,0,-3.0418,-3.0409,-3.0334,-3.0312,-3.0302,-3.0271,-3.0257,-3.0248,-3.0161,-3.0193,-3.0184,-3.0173,-3.0084,-3.0069,-3.0063,-3.0052,-3.0014,-3.0012,-3.0011,-3.001,-3.0076,-3.0079,0,0,0,0,0,0,-3.0435,-3.0414,-3.0338,-3.0331,-3.0349,-3.0271,-3.0256,-3.0244,-3.016,-3.0145,-3.0175,-3.0167,-3.0074,-3.0066,-3.0059,-3.0106,-3.0012,-3.001,-3.0009,-3.0073,-3.0077,-3.008,0,0,0,0,0,0,-3.0437,-3.0429,-3.0342,-3.037,-3.0357,-3.0272,-3.0259,-3.0243,-3.0228,-3.0147,-3.0131,-3.0177,-3.0071,-3.0062,-3.0064,-3.0101,-3.0009,-3.0008,-3.007,-3.0074,-3.0078,-3.0201,0,0,0,0,0,0,-3.0441,-3.0431,-3.0447,-3.0371,-3.0356,-3.0349,-3.0261,-3.0243,-3.0226,-3.0214,-3.0144,-3.0129,-3.0068,-3.0068,-3.0062,-3.0096,-3.0006,-3.0066,-3.0072,-3.0077,-3.0193,-3.0209,-3.0222,0,0,0,0,0,-3.0445,-3.0485,-3.0448,-3.044,-3.0374,-3.0352,-3.0343,-3.0272,-3.0229,-3.0244,-3.0192,-3.0131,-3.0097,-3.0069,-3.0062,-3.0096,-3.0063,-3.007,-3.0076,-3.0187,-3.0206,-3.0222,0,0,0,0,0,0,-3.0567,-3.0474,-3.0432,-3.0449,-3.0409,-3.0331,-3.0348,-3.0294,-3.0265,-3.0256,-3.0169,-3.0154,-3.0167,-3.0131,-3.0101,-3.0135,-3.0072,-3.0077,-3.0158,-3.0175,-3.019,-3.0199,-3.0005,0,0,0,0,0,-3.0596,-3.0586,-3.0505,-3.0528,-3.051,-3.0433,-3.0421,-3.037,-3.0325,-3.0307,-3.0255,-3.0214,-3.0194,-3.0182,-3.0159,-3.0187,-3.017,-3.0207,-3.0222,-3.0234,-3.024,-3.0253,-3.0269,-3.0101,-3.0101,-3.0101,0,0,-3.0655,-3.0603,-3.0602,-3.0551,-3.0514,-3.0506,-3.0419,-3.0414,-3.0407,-3.0306,-3.0306,-3.0266,-3.0214,-3.023,-3.0234,-3.0201,-3.0283,-3.0242,-3.0253,-3.0252,-3.0262,-3.0278,-3.0292,-3.0105,-3.0105,-3.0104,0,0,-3.076,-3.0719,-3.0735,-3.07,-3.0645,-3.0594,-3.0598,-3.0527,-3.0497,-3.0495,-3.042,-3.041,-3.0377,-3.0344,-3.0323,-3.0416,-3.036,-3.0411,-3.0487,-3.0501,-3.0514,-3.0526,-3.056,-3.0573,-3.0417,-3.0417,-3.0417,0,-3.0841,-3.0826,-3.0749,-3.0749,-3.0729,-3.0638,-3.0653,-3.0622,-3.0564,-3.0552,-3.0515,-3.0472,-3.0431,-3.0438,-3.0461,-3.0447,-3.0449,-3.0419,-3.0519,-3.0529,-3.0539,-3.057,-3.0584,-3.0424,-3.0423,-3.0422,-3.0422,0,-3.0928,-3.0919,-3.0938,-3.0884,-3.0866,-3.0873,-3.0799,-3.0789,-3.074,-3.0693,-3.0693,-3.064,-3.0605,-3.0603,-3.0554,-3.0604,-3.0585,-3.0535,-3.0469,-3.0563,-3.0591,-3.0603,-3.0433,-3.0431,-3.0429,-3.0427,0,0,-3.1107,-3.1011,-3.1019,-3.0994,-3.0928,-3.0919,-3.0923,-3.0889,-3.0884,-3.0846,-3.0848,-3.0822,-3.0776,-3.0752,-3.0699,-3.0711,-3.079,-3.0659,-3.0656,-3.0686,-3.0842,-3.0882,-3.0897,-3.0752,-3.0754,-3.0755,-3.0847,0,-3.12,-3.1202,-3.1133,-3.1153,-3.1144,-3.1058,-3.1061,-3.1021,-3.0977,-3.0963,-3.0913,-3.0898,-3.0837,-3.0822,-3.083,-3.0779,-3.082,-3.0771,-3.0753,-3.0753,-3.077,-3.0912,-3.0953,-3.1042,-3.0858,-3.0859,-3.0861,0,-3.131,-3.1279,-3.1299,-3.1233,-3.1227,-3.1231,-3.1195,-3.1182,-3.1135,-3.1102,-3.1077,-3.1017,-3.1016,-3.0954,-3.0952,-3.092,-3.0909,-3.0883,-3.0884,-3.0881,-3.0814,-3.0913,-3.1069,-3.1083,-3.0877,-3.0876,-3.0875,0,-3.144,-3.1404,-3.1411,-3.1392,-3.1315,-3.132,-3.1288,-3.1238,-3.1222,-3.1191,-3.118,-3.1149,-3.1133,-3.111,-3.1044,-3.1005,-3.105,-3.0982,-3.1024,-3.1026,-3.1038,-3.1038,-3.1195,-3.1029,-3.1029,-3.1029,-3.1028,0,-3.1552,-3.1568,-3.1468,-3.1473,-3.1489,-3.141,-3.1427,-3.1387,-3.1343,-3.1339,-3.1261,-3.1259,-3.1171,-3.1158,-3.1106,-3.1113,-3.1106,-3.108,-3.1066,-3.1088,-3.1091,-3.108,-3.1072,-3.1032,-3.1031,-3.1031,-3.103,0,-3.17,-3.1634,-3.1637,-3.1564,-3.1546,-3.156,-3.1498,-3.1499,-3.145,-3.1446,-3.144,-3.1364,-3.1346,-3.1277,-3.1241,-3.1206,-3.1231,-3.1203,-3.1247,-3.1238,-3.1284,-3.1282,-3.144,-3.1458,-3.128,-3.1282,-3.1283,0,-3.1777,-3.1787,-3.1716,-3.1707,-3.1679,-3.1666,-3.165,-3.1573,-3.156,-3.1508,-3.1516,-3.1492,-3.1468,-3.1443,-3.1384,-3.1357,-3.1329,-3.1386,-3.1324,-3.1346,-3.1331,-3.1332,-3.1333,-3.14,-3.1403,-3.1404,-3.1406,0,-3.1921,-3.1888,-3.1868,-3.1837,-3.1821,-3.1793,-3.176,-3.1757,-3.1672,-3.1661,-3.1641,-3.1623,-3.1587,-3.1565,-3.1528,-3.1495,-3.1437,-3.1426,-3.1434,-3.1457,-3.1483,-3.1471,-3.1285,-3.1423,-3.1421,-3.142,-3.1419,-3.1418,-3.2036,-3.2042,-3.1993,-3.1973,-3.1941,-3.1912,-3.1911,-3.1862,-3.1845,-3.181,-3.1765,-3.1752,-3.1705,-3.165,-3.1622,-3.161,-3.1578,-3.159,-3.1593,-3.1597,-3.1609,-3.1484,-3.1603,-3.1602,-3.1602,-3.1601,-3.1601,0,-3.2177,-3.2141,-3.2124,-3.2082,-3.2067,-3.2013,-3.1975,-3.1966,-3.1955,-3.1916,-3.1895,-3.1874,-3.1851,-3.1791,-3.1763,-3.1766,-3.1739,-3.1761,-3.1761,-3.1754,-3.1638,-3.1634,-3.1784,-3.1783,-3.1783,-3.1783,-3.1783,-3.1783,-3.2249,-3.2256,-3.2217,-3.2208,-3.2171,-3.2158,-3.2141,-3.2114,-3.2083,-3.2063,-3.2044,-3.2005,-3.1958,-3.1926,-3.1903,-3.1886,-3.188,-3.1912,-3.1887,-3.178,-3.1762,-3.1746,-3.1742,-3.1911,-3.1911,-3.2003,-3.2004,-3.2005]},{"header":{"parameterUnit":"m.s-1","parameterCategory":1,"la1":30.2991,"la2":30.254,"lo1":-89.0895,"lo2":-89.0444,"dy":0.0017,"dx":0.0017,"nx":28,"ny":28,"refTime":"2023-08-22T03:00:00:Z","depth":0,"parameterNumber":3,"parameterNumberName":"V-component_of_WINDS"},"data":[0,0,0,0,0,0,0,0,0,0,0,0,0,0,0,0,0,0,0,0,0,0,0,0,0,0,0,0,0,0,0,0,0,0,0,0,0,0,0,0,0,0,0,0,0,0,0,0,0,0,0,0,0,0,0,0,0,0,-0.2561,-0.2561,0,-0.2581,-0.2582,-0.2582,-0.2557,-0.2556,-0.2555,-0.2554,-0.2576,-0.2577,-0.2579,0,0,0,0,0,0,0,0,0,0,0,0,0,-0.25,-0.2501,-0.2561,-0.2561,-0.2561,-0.2581,-0.2582,-0.2582,-0.2557,-0.2556,-0.2555,-0.2554,-0.2575,-0.2577,-0.2579,0,0,0,0,0,0,0,0,0,0,0,0,0,-0.2524,-0.2502,-0.2561,-0.2551,-0.2551,-0.2581,-0.2582,-0.2582,-0.2557,-0.2556,-0.2554,-0.2553,-0.2575,-0.2577,-0.2579,-0.262,0,0,-0.2586,-0.2587,0,0,0,0,0,0,0,0,-0.2523,-0.2526,-0.2552,-0.2552,-0.2551,-0.2565,-0.2568,-0.2595,-0.2557,-0.2555,-0.2554,-0.2552,-0.2573,-0.2576,-0.2583,-0.2622,-0.2622,-0.2586,-0.2587,-0.2588,-0.2589,0,0,0,0,0,0,0,-0.2521,-0.2525,-0.2569,-0.2553,-0.2552,-0.2546,-0.2548,-0.2573,-0.2572,-0.2555,-0.2553,-0.2556,-0.2573,-0.2581,-0.2583,-0.2623,-0.2586,-0.2588,-0.2589,-0.259,-0.2695,-0.2697,0,0,0,0,0,0,-0.2521,-0.2524,-0.2568,-0.257,-0.2533,-0.2548,-0.255,-0.2562,-0.2571,-0.2571,-0.2557,-0.2554,-0.2578,-0.258,-0.2584,-0.2632,-0.2588,-0.259,-0.2592,-0.2694,-0.2696,-0.2697,0,0,0,0,0,0,-0.2519,-0.2525,-0.2567,-0.2546,-0.2551,-0.2551,-0.2564,-0.2563,-0.2571,-0.2573,-0.2573,-0.2565,-0.2577,-0.2581,-0.2611,-0.2632,-0.2591,-0.2593,-0.2692,-0.2694,-0.2696,-0.273,0,0,0,0,0,0,-0.2518,-0.2524,-0.254,-0.2547,-0.2553,-0.2595,-0.2565,-0.2565,-0.2574,-0.2572,-0.258,-0.2581,-0.2576,-0.2608,-0.2613,-0.2635,-0.2595,-0.269,-0.2693,-0.2696,-0.2727,-0.2733,-0.2738,0,0,0,0,0,-0.2516,-0.2549,-0.2541,-0.2547,-0.2572,-0.2596,-0.2599,-0.2593,-0.2576,-0.2592,-0.2593,-0.258,-0.2629,-0.2611,-0.2617,-0.264,-0.2689,-0.2692,-0.2696,-0.2724,-0.2731,-0.2738,0,0,0,0,0,0,-0.2546,-0.255,-0.2541,-0.2578,-0.2587,-0.2592,-0.2612,-0.2601,-0.2615,-0.2612,-0.2603,-0.2606,-0.2638,-0.2642,-0.2622,-0.2679,-0.2656,-0.2661,-0.2676,-0.2683,-0.2689,-0.2687,-0.2597,0,0,0,0,0,-0.2557,-0.2576,-0.2578,-0.261,-0.2615,-0.2613,-0.2623,-0.2617,-0.2626,-0.263,-0.2633,-0.2642,-0.266,-0.2671,-0.2688,-0.2727,-0.2728,-0.2745,-0.275,-0.2755,-0.2759,-0.2779,-0.2787,-0.2708,-0.2708,-0.2708,0,0,-0.258,-0.2584,-0.2597,-0.2617,-0.2623,-0.2642,-0.2616,-0.2638,-0.2653,-0.2633,-0.2662,-0.2665,-0.2675,-0.2709,-0.2725,-0.2713,-0.2781,-0.2759,-0.2763,-0.2765,-0.2784,-0.2791,-0.2798,-0.2711,-0.271,-0.271,0,0,-0.2632,-0.2637,-0.2664,-0.267,-0.2679,-0.2677,-0.2684,-0.269,-0.2691,-0.272,-0.2705,-0.2722,-0.2752,-0.276,-0.2767,-0.282,-0.2808,-0.2825,-0.2855,-0.2875,-0.2881,-0.2886,-0.2905,-0.2912,-0.283,-0.283,-0.283,0,-0.2659,-0.2688,-0.2679,-0.2702,-0.2711,-0.2693,-0.272,-0.2727,-0.2741,-0.2748,-0.2734,-0.2771,-0.2777,-0.2812,-0.2825,-0.2832,-0.2839,-0.2825,-0.2881,-0.2886,-0.2891,-0.2909,-0.2916,-0.2832,-0.2831,-0.2831,-0.2831,0,-0.2721,-0.2741,-0.2762,-0.2775,-0.2786,-0.2811,-0.2806,-0.2818,-0.2811,-0.281,-0.2839,-0.2845,-0.2861,-0.2869,-0.2863,-0.2904,-0.2896,-0.2882,-0.2859,-0.2901,-0.2917,-0.2924,-0.2835,-0.2834,-0.2833,-0.2833,0,0,-0.2794,-0.2801,-0.2809,-0.2814,-0.2822,-0.2838,-0.2861,-0.2877,-0.2887,-0.2897,-0.2917,-0.2942,-0.2928,-0.2937,-0.2931,-0.2948,-0.2989,-0.2932,-0.2932,-0.2942,-0.3034,-0.3045,-0.3053,-0.2981,-0.2982,-0.2983,-0.3033,0,-0.2845,-0.2886,-0.2878,-0.2918,-0.2936,-0.2919,-0.2939,-0.2946,-0.2946,-0.2961,-0.296,-0.2978,-0.2959,-0.2964,-0.298,-0.2981,-0.3007,-0.2977,-0.2999,-0.3,-0.2997,-0.3061,-0.3073,-0.312,-0.3039,-0.3041,-0.3041,0,-0.2911,-0.2923,-0.2964,-0.2968,-0.2976,-0.2994,-0.3007,-0.3022,-0.3029,-0.3028,-0.3037,-0.3027,-0.305,-0.3026,-0.3057,-0.3037,-0.3045,-0.3046,-0.3048,-0.305,-0.3023,-0.3065,-0.3135,-0.3142,-0.3051,-0.3051,-0.305,0,-0.296,-0.2986,-0.3014,-0.3019,-0.3024,-0.3038,-0.3041,-0.3047,-0.3056,-0.3067,-0.3073,-0.3087,-0.3095,-0.3106,-0.31,-0.3083,-0.3133,-0.3108,-0.3132,-0.3132,-0.3144,-0.3143,-0.3216,-0.3149,-0.3149,-0.3149,-0.3148,0,-0.3018,-0.3044,-0.3035,-0.3053,-0.3081,-0.3071,-0.3099,-0.31,-0.3105,-0.3122,-0.3108,-0.3124,-0.3115,-0.3131,-0.3126,-0.3153,-0.3156,-0.3156,-0.3154,-0.3157,-0.3157,-0.3163,-0.3159,-0.315,-0.315,-0.315,-0.3149,0,-0.3078,-0.3073,-0.3102,-0.3104,-0.3106,-0.3126,-0.3128,-0.3144,-0.3142,-0.3163,-0.3168,-0.3164,-0.3182,-0.3176,-0.3195,-0.3192,-0.3226,-0.322,-0.3223,-0.3222,-0.3246,-0.3244,-0.3325,-0.3335,-0.3261,-0.3262,-0.3263,0,-0.3116,-0.3135,-0.3139,-0.3149,-0.3153,-0.3169,-0.3179,-0.317,-0.318,-0.3189,-0.3203,-0.3219,-0.3231,-0.3259,-0.3259,-0.3273,-0.3267,-0.3295,-0.327,-0.3271,-0.3268,-0.3267,-0.3268,-0.33,-0.3301,-0.3302,-0.3302,0,-0.3183,-0.318,-0.3193,-0.3206,-0.3217,-0.3226,-0.3235,-0.3244,-0.3235,-0.3247,-0.3264,-0.3273,-0.3292,-0.3308,-0.332,-0.3323,-0.3311,-0.331,-0.3316,-0.3319,-0.332,-0.332,-0.3237,-0.3308,-0.3308,-0.3307,-0.3307,-0.3307,-0.3233,-0.3249,-0.3254,-0.327,-0.3274,-0.3282,-0.3297,-0.3296,-0.331,-0.3324,-0.3317,-0.3337,-0.3343,-0.3358,-0.3363,-0.3378,-0.3367,-0.3376,-0.3378,-0.3381,-0.3384,-0.3318,-0.338,-0.338,-0.3379,-0.3379,-0.3379,0,-0.33,-0.3302,-0.3316,-0.3327,-0.3339,-0.3326,-0.3334,-0.3345,-0.3362,-0.3368,-0.338,-0.3399,-0.3414,-0.3414,-0.3427,-0.3439,-0.3434,-0.3443,-0.3442,-0.3443,-0.3393,-0.3386,-0.3447,-0.3447,-0.3447,-0.3447,-0.3447,-0.3447,-0.3336,-0.3362,-0.3359,-0.3387,-0.3388,-0.3407,-0.3413,-0.3419,-0.3424,-0.3446,-0.3458,-0.3457,-0.3461,-0.3474,-0.3487,-0.3487,-0.3492,-0.3503,-0.3501,-0.3454,-0.3447,-0.3441,-0.3434,-0.3505,-0.3505,-0.355,-0.3551,-0.3551]}]]